Location: Unspecified
(0.0000°N, 0.0000°E)
Time: 06:11:18
(UTC+00:00)

Explorer 7 - Pass Details

Date: 10 October 2020
Orbit: 484 x 678 km, 50.3° (Epoch: 28 October)

Event Time Altitude Azimuth Distance (km) Brightness Sun altitude
Rises 06:54:31 0° 284° (WNW) 3,012 10.0 16.8°
Reaches altitude 10° 06:58:43 10° 249° (WSW) 2,079 9.3 17.8°
Maximum altitude 07:00:06 11° 232° (SW) 1,994 9.3 18.2°
Drops below altitude 10° 07:01:29 10° 215° (SW) 2,058 9.5 18.5°
Sets 07:05:35 0° 180° (S) 2,926 10.6 19.5°
